This demonstration page uses our WeatherBlox Daily Observations layout. Learn more.

Hourly Observations for April 10, 2020

Temp ( °F °C ) Dew Point ( °F °C ) Humidity (%) Winds ( mph kmh ) Pressure ( in mb ) Visibility ( mi km ) Precip ( " mm )
12:54 am 00:54 Clear 27 -2.8 15 -9.4 61 61 N 3 6 30.27 1025 10 16.0934 0 0
1:54 am 01:54 Clear 22 -5.6 14 -10 71 71 Calm 30.27 1025 10 16.0934 0 0
2:54 am 02:54 Clear 21 -6.1 14 -10 74 74 N 6 9 30.28 1025 10 16.0934 0 0
3:54 am 03:54 Clear 24 -4.4 15 -9.4 68 68 NNW 3 6 30.26 1025 10 16.0934 0 0
4:54 am 04:54 Clear 18 -7.8 12 -11.1 77 77 NNE 7 11 30.25 1024 10 16.0934 0 0
5:54 am 05:54 Clear 23 -5 15 -9.4 72 72 WSW 5 7 30.24 1024 10 16.0934 0 0
6:54 am 06:54 Clear 23 -5 16 -8.9 74 74 WSW 3 6 30.26 1025 10 16.0934 0 0
7:54 am 07:54 Sunny 27 -2.8 16 -8.9 63 63 WSW 3 6 30.26 1025 10 16.0934 0 0
8:54 am 08:54 Sunny 32 0 19 -7.2 59 59 SW 5 7 30.26 1025 9 14.48406 0 0
9:54 am 09:54 Sunny 39 3.9 19 -7.2 45 45 S 12 19 30.24 1024 10 16.0934 0 0
10:54 am 10:54 Sunny 43 6.1 18 -7.8 37 37 S 13 20 30.22 1023 10 16.0934 0 0
11:54 am 11:54 Mostly Sunny 46 7.8 18 -7.8 32 32 S 12 19 30.17 1022 10 16.0934 0 0
12:54 pm 12:54 Cloudy 47 8.3 16 -8.9 29 29 S 16 26 30.12 1020 10 16.0934 0 0
1:54 pm 13:54 Cloudy 53 11.7 18 -7.8 25 25 SSW 15 24 30.06 1018 10 16.0934 0 0
2:54 pm 14:54 Mostly Cloudy 55 12.8 18 -7.8 23 23 SSW 17 28 30 1016 10 16.0934 0 0
3:54 pm 15:54 Cloudy 56 13.3 19 -7.2 24 24 S 21 33 29.94 1014 10 16.0934 0 0
4:54 pm 16:54 Mostly Cloudy 57 13.9 19 -7.2 23 23 SSW 17 28 29.92 1013 10 16.0934 0 0
5:54 pm 17:54 Sunny 56 13.3 20 -6.7 24 24 SSW 17 28 29.9 1013 10 16.0934 0 0
6:54 pm 18:54 Sunny 56 13.3 21 -6.1 26 26 SSW 17 28 29.87 1012 10 16.0934 0 0
7:54 pm 19:54 Sunny 53 11.7 23 -5 31 31 S 13 20 29.86 1011 10 16.0934 0 0
8:54 pm 20:54 Clear 46 7.8 23 -5 40 40 SSE 9 15 29.85 1011 10 16.0934 0 0
9:54 pm 21:54 Clear 45 7.2 25 -3.9 46 46 SSE 8 13 29.85 1011 10 16.0934 0 0
10:54 pm 22:54 Hazy 48 8.9 24 -4.4 39 39 SSE 13 20 29.83 1010 4 6.43736 0 0
11:54 pm 23:54 Hazy 47 8.3 25 -3.9 42 42 SSE 13 20 29.82 1010 4 6.43736 0 0

Powered by AerisWeather